Location: Grums
(59.3529°N, 13.1129°E)
Time: 08:38:29
(UTC+02:00)

Nauka - Pass Details

Date: 30 September 2021
Orbit: 417 x 423 km, 51.6° (Epoch: 24 October)

Event Time Altitude Azimuth Distance (km) Brightness Sun altitude
Rises 19:26:07 0° 258° (WSW) 2,365 ? -6.3°
Reaches altitude 10° 19:28:34 10° 240° (WSW) 1,501 ? -6.6°
Maximum altitude 19:31:05 20° 192° (SSW) 1,045 ? -6.9°
Drops below altitude 10° 19:33:36 10° 144° (SE) 1,501 ? -7.3°
Enters shadow 19:34:45 - 133° (SE) 1,883 ? -7.4°
